Weather Service Report


351 
ASUS44 KLUB 170810
RWRTX 
WEST TEXAS WEATHER ROUNDUP
NATIONAL WEATHER SERVICE LUBBOCK TX
300 AM CDT THU APR 17 2014

NOTE: "FAIR" INDICATES FEW OR NO CLOUDS BELOW 12,000 FEET WITH NO
SIGNIFICANT WEATHER AND/OR OBSTRUCTIONS TO VISIBILITY.

TXZ004-006>008-010-012-014-016-OKZ002-170900-
TEXAS PANHANDLE/OKLAHOMA PANHANDLE
  
CITY           SKY/WX    TMP DP  RH WIND       PRES   REMARKS
AMARILLO       PTCLDY    50  30  46 NE20      29.98S                  
BORGER         PTCLDY    50  33  52 NE21G29   30.02R                  
CANADIAN       PTCLDY    51  37  57 NE15      30.03F                  
DALHART        PTCLDY    45  31  58 NE22      30.07R                  
DUMAS          CLEAR     44  32  63 NE20G25   30.03S                  
GUYMON         CLOUDY    47  33  58 NE12      30.08F                  
HEREFORD       MOCLDY    50  27  39 NE18G25   29.95S                  
PAMPA          PTCLDY    46  33  60 NE18      30.03R HAZE             
PERRYTON       PTCLDY    46  33  62 NE14      30.06F                  
$$

TXZ026-029-035-045-048-170900-
SOUTHERN PANHANDLE/SOUTH PLAINS/ROLLING PLAINS
  
CITY           SKY/WX    TMP DP  RH WIND       PRES   REMARKS
CHILDRESS      CLOUDY    54  39  57 E12G22    29.96R                  
SEMINOLE       CLEAR     50  34  54 S5        29.84S                  
LUBBOCK        MOCLDY    56  34  43 SE8       29.90R                  
PLAINVIEW      CLOUDY    53  29  39 E8        29.91R                  
SNYDER         CLEAR     57  37  47 SE15      29.86S                  
$$

TXZ052-054-060>062-072-078-127-140-154-169-170900-
PERMIAN BASIN/CONCHO VALLEY/BIG COUNTRY/EDWARDS PLATEAU  
  
CITY           SKY/WX    TMP DP  RH WIND       PRES   REMARKS
ABILENE        CLEAR     55  44  66 SE16      29.89S                  
BIG SPRING     CLEAR     59  38  46 SE18      29.85F                  
BRADY          CLEAR     55  45  67 SE13      29.93S                  
BROWNWOOD      CLOUDY    55  46  71 SE13G20   29.95S                  
JUNCTION       CLOUDY    57  49  74 SE12      29.93F                  
MIDLAND        CLEAR     57  40  52 S15       29.82S                  
ODESSA         CLEAR     57  38  48 S12       29.82F                  
SAN ANGELO     CLEAR     52  37  56 SE6       29.88S                  
SONORA         PTCLDY    57  46  67 S13       29.90F                  
SWEETWATER     CLEAR     57  37  47 SE14      29.90F                  
WINK           PTCLDY    57  39  51 SE14      29.78S                  
$$

TXZ055-058-074-075-080-082-170900-
FAR WEST/SOUTHWEST MOUNTAINS/TRANS PECOS
  
CITY           SKY/WX    TMP DP  RH WIND       PRES   REMARKS
ALPINE         CLEAR     63  19  18 SW7       29.94S                  
DRYDEN           N/A     57  42  57 NE6       29.85R                  
EL PASO        CLOUDY    67   1   7 W14       29.87S                  
FORT STOCKTON  CLEAR     57  38  48 SE20      29.84R                  
GUADALUPE PASS PTCLDY    62   1   8 W12G21    29.93R                  
MARFA          PTCLDY    45  10  24 N9        29.95R                  
PECOS          CLEAR     54  33  45 CALM      29.78R                  
PRESIDIO       FAIR      65  19  17 N9        29.83R                  
$$

TXZ014-016-019-021>030-083-170900
TEXAS TECH WEST TEXAS MESONET/TEXAS PANHANDLE/NORTHERN SOUTH PLAINS
  
CITY           SKY/WX    TMP DP  RH WIND       PRES   REMARKS
ABERNATHY 5ENE   N/A     55  32  41 S3        29.92R                  
AMARILLO 9NNE    N/A     49  32  51 NE20      30.00R                  
AMARILLO 7SSE    N/A     49  29  46 NE17      29.98R                  
AMHERST 1NE      N/A     53  31  44 E7        29.90R                  
BOOTLEG 11WNW    N/A     45  28  52 N17       30.00R                  
CANADIAN 6E      N/A     49  35  58 NE20      30.02F                  
CAPROCK CYN SP   N/A     53  32  45 N3        29.95S                  
CHILDRESS 2NNE   N/A     53  40  62 E14       29.96R                  
CLARENDON 2WSW   N/A     51  36  56 E14       29.96S                  
CLAUDE 12SW      N/A     50  33  51 NE13      29.96R                  
DIMMITT 2NE      N/A     50  25  37 NE10      29.93R                  
FLOYDADA 2NNE    N/A     49  25  38 E7        29.92R                  
FRIONA 2NE       N/A     49  27  42 NE20      29.95R                  
GOODLETT 3W      N/A     53  40  62 E10       29.96R                  
HART 3N          N/A     48  32  52 E10       29.92R                  
HEREFORD 2NW     N/A     50  26  40 NE15      29.95S                  
MCLEAN 1E        N/A     50  37  59 E14       29.97S                  
MEMPHIS 1NE      N/A     53  39  59 E12       29.96F                  
MULESHOE 2SSW    N/A     46  23  40 NE1       29.89R                  
OLTON 6S         N/A     53  31  43 E7        29.91R                  
PALO DURO SP     N/A     50  31  47 NE10      29.98R                  
PAMPA 2E         N/A     46  33  59 NE13      30.02R                  
PLAINVIEW 1S     N/A     52  29  40 E7        29.91S                  
SILVERTON 7ESE   N/A     51  31  46 E10       29.94S                  
TULIA 2ENE       N/A     50  30  46 NE13      29.92S                  
TURKEY 2WSW      N/A     55  35  46 E13       29.93S                  
UMBARGER 3NNE    N/A     49  28  44 NE17      29.97R                  
$$

TXZ033>036-039>041-045>048-170900
TEXAS TECH WEST TEXAS MESONET/SOUTH PLAINS  
  
CITY           SKY/WX    TMP DP  RH WIND       PRES   REMARKS
AIKEN 3WSW       N/A     49  30  48 E10       29.93S                  
ANDREWS 2NE      N/A     55  36  50 S13       29.82S                  
ANTON 6SSW       N/A     53  31  43 SE5       29.89R                  
BROWNFIELD 2S    N/A     49  32  51 S8        29.83S                  
DENVR CTY 7WNW   N/A     48  30  51 SE2       29.84R                  
GAIL 2ESE        N/A     55  35  46 S6        29.85S                  
LAMESA 2SE       N/A     52  36  54 SE10      29.84F                  
LEVELLAND 4S     N/A     51  30  43 W2        29.89R                  
LUBBOCK 3WNW     N/A     56  33  42 NW6       29.92R                  
MORTON 1ENE      N/A     50  29  44 S5        29.88R                  
ODONNELL 1N      N/A     54  35  48 SE10      29.84S                  
PLAINS 3N        N/A     51  31  45 NW12      29.90R                  
RALLS 1SE        N/A     53  29  41 NE9       29.91R                  
REESE CENTER     N/A     53  32  44 SE3       29.89S                  
SEAGRAVES 1SW    N/A     50  35  54 SE7       29.83S                  
SEMINOLE 2NNE    N/A     47  33  59 SE7       29.83R                  
SLATON 2NE       N/A     52  32  46 SE6       29.86R                  
SNYDER 3E        N/A     55  36  48 SE16      29.85S                  
SUNDOWN 8SW      N/A     49  31  48 SW5       29.87S                  
TAHOKA 3NNE      N/A     52  33  48 S10       29.83F                  
WOLFFORTH 6SSW   N/A     52  32  45 E3        29.88R                  
$$

TXZ031-032-036>038-042>044-170900-
TEXAS TECH WEST TEXAS MESONET/ROLLING PLAINS 
  
CITY           SKY/WX    TMP DP  RH WIND       PRES   REMARKS
ASPERMONT 3NE    N/A     55  36  48 E8        29.89S                  
FLUVANNA 3WNW    N/A     55  34  45 S15       29.85R                  
GRAHAM 5SSW      N/A     55  34  45 SE14      29.85R                  
GUTHRIE 10WSW    N/A     52  32  46 NE12      29.90R                  
HASKELL 1NW      N/A     53  38  57 E7        29.91R                  
JAYTON 1SSE      N/A     53  33  46 E8        29.88S                  
KNOX CITY 3NW    N/A     53  39  58 E10       29.93R                  
LK A HENRY 1NW   N/A     58  36  44 S10       29.86R                  
NORTHFIELD 1S    N/A     55  37  50 E9        29.94S                  
ODELL 4ENE       N/A     52  43  70 E13       29.99S                  
PADUCAH 10SW     N/A     54  37  53 E10       29.93R                  
POST 1NE         N/A     56  33  42 S8        29.85S                  
RRING SPRGS 3N   N/A     53  32  44 NE7       29.92R                  
SEYMOUR 3NW      N/A     56  44  66 SE16      29.95R                  
SPUR 1W          N/A     55  29  37 E8        29.88R                  
WEINERT 2NNE     N/A     53  41  64 E10       29.93R                  
WHITE RVR 6NE    N/A     55  31  40 E9        29.88R                  
$$

TXZ052-054-060>062-072-078-127-140-154-169-170900-
TEXAS TECH WEST TEXAS MESONET/PERMIAN BASIN/
CONCHO VALLEY/BIG COUNTRY/EDWARDS PLATEAU
  
CITY           SKY/WX    TMP DP  RH WIND       PRES   REMARKS
COYANOSA 2N      N/A     58  37  46 SE14      29.78F                  
JUNCTION 1SSW    N/A     57  49  75 S6        29.93F                  
MERTZON 3NNE     N/A     56  40  55 SE6       29.89S                  
SAN ANGELO 7NW   N/A     52  34  51 E8        29.89S                  
STRLNG CT 4WSW   N/A     55  38  52 E9        29.87F                  
ST LAWRNCE 5SW   N/A     55  38  53 SE15      29.85S                  
WALL 1E          N/A     53  37  55 E6        29.90R                  
$$

TXZ055-058-074-075-080-082-170900-
TEXAS TECH WEST TEXAS MESONET/FAR WEST/SOUTHWEST MOUNTAINS/TRANS PECOS
  
CITY           SKY/WX    TMP DP  RH WIND       PRES   REMARKS
PRSMN GAP BBNP   N/A     60  34  37 NE13      29.85S                  
GUADLPE MTN NP   N/A     61   4  10 N28       29.95R                  
$$

Return to Home page


Western Regional Climate Center, wrcc@dri.edu